Tracking 21473 objects as of 18-Sep-2020
HD Live streaming from Space Station
objects crossing your sky now

SL-14 R/B

Track SL-14 R/B now!
10-day predictions
SL-14 R/B is classified as:


NORAD ID: 21423
Int'l Code: 1991-042B
Perigee: 625.5 km
Apogee: 648.7 km
Inclination: 82.5 °
Period: 97.3 minutes
Semi major axis: 7008 km
RCS: 4.7234 m2 (large)
Launch date: June 13, 1991
Source: Commonwealth of Independent States (former USSR) (CIS)
Launch site: PLESETSK MISSILE AND SPACE COMPLEX (PKMTR)

Note: This is a ROCKET BODY
aabbcc
Your satellite tracking list
Your tracking list is empty




NASA's NSSDC Master Catalog

Two Line Element Set (TLE):
1 21423U 91042B   20261.82958152 +.00000066 +00000-0 +57242-5 0  9996
2 21423 082.4915 290.5676 0016547 320.6654 039.3356 14.79798502557320
Source of the keplerian elements: AFSPC